| time (UTC) | temp C | wind direction | speed KPH | gust KPH | rain 1hr cm | rain 24hr cm | rain mn cm | humidity % | barometer mb |
| 20260506124308 | 16 | 45 | 0.0 | 4.8 | 0.00 | 0.00 | 0.00 | 1 | 929.1 |
| 20260506124108 | 16 | 90 | 0.0 | 4.8 | 0.00 | 0.00 | 0.00 | 1 | 929.1 |
| 20260506123908 | 15 | 45 | 0.0 | 4.8 | 0.00 | 0.00 | 0.00 | 1 | 929.1 |
| 20260506123708 | 15 | 90 | 1.6 | 6.4 | 0.00 | 0.00 | 0.00 | 1 | 929.2 |
| 20260506123510 | 15 | 45 | 1.6 | 6.4 | 0.00 | 0.00 | 0.00 | 1 | 929.2 |
| 20260506123308 | 15 | 45 | 1.6 | 6.4 | 0.00 | 0.00 | 0.00 | 1 | 929.2 |
| 20260506123108 | 15 | 0 | 0.0 | 6.4 | 0.00 | 0.00 | 0.00 | 1 | 929.3 |
| 20260506122908 | 15 | 45 | 1.6 | 6.4 | 0.00 | 0.00 | 0.00 | 1 | 929.3 |
| 20260506122708 | 14 | 135 | 1.6 | 4.8 | 0.00 | 0.00 | 0.00 | 1 | 929.3 |
| 20260506122510 | 14 | 90 | 1.6 | 4.8 | 0.00 | 0.00 | 0.00 | 1 | 929.4 |
| 20260506122308 | 13 | 135 | 0.0 | 4.8 | 0.00 | 0.00 | 0.00 | 1 | 929.3 |
| 20260506122108 | 13 | 90 | 0.0 | 4.8 | 0.00 | 0.00 | 0.00 | 1 | 929.3 |
| 20260506121908 | 13 | 90 | 1.6 | 4.8 | 0.00 | 0.00 | 0.00 | 1 | 929.3 |
| 20260506121708 | 13 | 90 | 1.6 | 4.8 | 0.00 | 0.00 | 0.00 | 1 | 929.3 |
| 20260506121509 | 13 | 135 | 0.0 | 3.2 | 0.00 | 0.00 | 0.00 | 1 | 929.3 |
| 20260506121308 | 13 | 45 | 0.0 | 3.2 | 0.00 | 0.00 | 0.00 | 1 | 929.3 |
| 20260506121108 | 12 | 45 | 0.0 | 3.2 | 0.00 | 0.00 | 0.00 | 1 | 929.3 |
| 20260506120908 | 12 | 45 | 0.0 | 3.2 | 0.00 | 0.00 | 0.00 | 1 | 929.4 |
| 20260506120708 | 12 | 0 | 0.0 | 3.2 | 0.00 | 0.00 | 0.00 | 1 | 929.4 |
| 20260506120509 | 12 | 45 | 0.0 | 3.2 | 0.00 | 0.00 | 0.00 | 1 | 929.3 |
| 20260506120309 | 12 | 90 | 0.0 | 3.2 | 0.00 | 0.00 | 0.00 | 1 | 929.3 |
| 20260506120108 | 12 | 45 | 0.0 | 3.2 | 0.00 | 0.00 | 0.00 | 1 | 929.3 |
| 20260506115908 | 12 | 45 | 0.0 | 3.2 | 0.00 | 0.00 | 0.00 | 1 | 929.3 |
| 20260506115708 | 12 | 45 | 0.0 | 3.2 | 0.00 | 0.00 | 0.00 | 1 | 929.3 |
| 20260506115509 | 12 | 45 | 0.0 | 3.2 | 0.00 | 0.00 | 0.00 | 1 | 929.3 |
| 20260506115308 | 12 | 45 | 0.0 | 3.2 | 0.00 | 0.00 | 0.00 | 1 | 929.3 |
| 20260506115108 | 12 | 90 | 1.6 | 3.2 | 0.00 | 0.00 | 0.00 | 1 | 929.2 |
| 20260506114908 | 12 | 90 | 0.0 | 1.6 | 0.00 | 0.00 | 0.00 | 1 | 929.2 |
| 20260506114708 | 12 | 90 | 0.0 | 1.6 | 0.00 | 0.00 | 0.00 | 1 | 929.2 |
| 20260506114509 | 12 | 90 | 0.0 | 1.6 | 0.00 | 0.00 | 0.00 | 1 | 929.2 |
| 20260506114308 | 12 | 45 | 0.0 | 1.6 | 0.00 | 0.00 | 0.00 | 1 | 929.3 |
| 20260506114109 | 12 | 45 | 0.0 | 3.2 | 0.00 | 0.00 | 0.00 | 1 | 929.1 |
| 20260506113909 | 12 | 0 | 0.0 | 3.2 | 0.00 | 0.00 | 0.00 | 1 | 929.1 |
| 20260506113708 | 12 | 45 | 0.0 | 3.2 | 0.00 | 0.00 | 0.00 | 1 | 929.0 |
| 20260506113510 | 12 | 45 | 0.0 | 3.2 | 0.00 | 0.00 | 0.00 | 1 | 929.0 |
| 20260506113308 | 12 | 45 | 0.0 | 4.8 | 0.00 | 0.00 | 0.00 | 1 | 929.0 |
| 20260506113108 | 11 | 90 | 0.0 | 4.8 | 0.00 | 0.00 | 0.00 | 1 | 929.0 |
| 20260506112908 | 11 | 90 | 0.0 | 4.8 | 0.00 | 0.00 | 0.00 | 1 | 928.9 |
| 20260506112708 | 11 | 45 | 0.0 | 4.8 | 0.00 | 0.00 | 0.00 | 1 | 928.8 |
| 20260506112509 | 11 | 135 | 0.0 | 4.8 | 0.00 | 0.00 | 0.00 | 1 | 928.8 |
| 20260506112308 | 11 | 90 | 0.0 | 3.2 | 0.00 | 0.00 | 0.00 | 1 | 928.7 |
| 20260506112108 | 11 | 45 | 0.0 | 3.2 | 0.00 | 0.00 | 0.00 | 1 | 928.7 |
| 20260506111909 | 11 | 45 | 0.0 | 3.2 | 0.00 | 0.00 | 0.00 | 1 | 928.6 |
| 20260506111510 | 11 | 90 | 0.0 | 3.2 | 0.00 | 0.00 | 0.00 | 1 | 928.6 |
| 20260506111308 | 11 | 90 | 0.0 | 3.2 | 0.00 | 0.00 | 0.00 | 1 | 928.6 |
| 20260506111108 | 11 | 135 | 0.0 | 3.2 | 0.00 | 0.00 | 0.00 | 1 | 928.5 |
| 20260506110908 | 11 | 90 | 0.0 | 3.2 | 0.00 | 0.00 | 0.00 | 1 | 928.5 |
| 20260506110708 | 11 | 135 | 0.0 | 3.2 | 0.00 | 0.00 | 0.00 | 1 | 928.5 |
| 20260506110509 | 11 | 90 | 0.0 | 3.2 | 0.00 | 0.00 | 0.00 | 1 | 928.6 |
| 20260506110308 | 11 | 90 | 0.0 | 1.6 | 0.00 | 0.00 | 0.00 | 1 | 928.5 |
| 20260506110108 | 11 | 90 | 0.0 | 1.6 | 0.00 | 0.00 | 0.00 | 1 | 928.5 |
| 20260506105908 | 11 | 225 | 0.0 | 1.6 | 0.00 | 0.00 | 0.00 | 1 | 928.4 |
| 20260506105709 | 11 | 135 | 0.0 | 1.6 | 0.00 | 0.00 | 0.00 | 1 | 928.3 |
| 20260506105509 | 11 | 90 | 0.0 | 1.6 | 0.00 | 0.00 | 0.00 | 1 | 928.2 |
| 20260506105308 | 11 | 90 | 0.0 | 1.6 | 0.00 | 0.00 | 0.00 | 1 | 928.1 |
| 20260506105108 | 12 | 45 | 0.0 | 1.6 | 0.00 | 0.00 | 0.00 | 1 | 928.1 |
| 20260506104908 | 12 | 225 | 0.0 | 1.6 | 0.00 | 0.00 | 0.00 | 1 | 928.1 |
| 20260506104708 | 12 | 90 | 0.0 | 1.6 | 0.00 | 0.00 | 0.00 | 1 | 928.0 |
| 20260506104509 | 11 | 45 | 0.0 | 1.6 | 0.00 | 0.00 | 0.00 | 1 | 928.0 |
| 20260506104308 | 12 | 90 | 0.0 | 3.2 | 0.00 | 0.00 | 0.00 | 1 | 928.0 |
| 20260506104108 | 12 | 45 | 0.0 | 3.2 | 0.00 | 0.00 | 0.00 | 1 | 928.0 |
| 20260506103908 | 11 | 90 | 0.0 | 3.2 | 0.00 | 0.00 | 0.00 | 1 | 928.0 |
| 20260506103708 | 11 | 135 | 0.0 | 3.2 | 0.00 | 0.00 | 0.00 | 1 | 928.1 |
| 20260506103509 | 11 | 90 | 0.0 | 3.2 | 0.00 | 0.00 | 0.00 | 1 | 928.0 |
| 20260506103308 | 11 | 90 | 0.0 | 3.2 | 0.00 | 0.00 | 0.00 | 1 | 927.9 |
| 20260506103108 | 11 | 90 | 0.0 | 3.2 | 0.00 | 0.00 | 0.00 | 1 | 927.9 |
| 20260506102908 | 11 | 45 | 0.0 | 3.2 | 0.00 | 0.00 | 0.00 | 1 | 927.9 |
| 20260506102708 | 11 | 135 | 0.0 | 3.2 | 0.00 | 0.00 | 0.00 | 1 | 927.8 |
| 20260506102509 | 11 | 135 | 0.0 | 3.2 | 0.00 | 0.00 | 0.00 | 1 | 927.8 |
| 20260506102308 | 11 | 135 | 0.0 | 1.6 | 0.00 | 0.00 | 0.00 | 1 | 927.8 |
| 20260506102108 | 11 | 45 | 0.0 | 1.6 | 0.00 | 0.00 | 0.00 | 1 | 927.8 |
| 20260506101908 | 11 | 135 | 0.0 | 1.6 | 0.00 | 0.00 | 0.00 | 1 | 927.9 |
| 20260506101708 | 11 | 90 | 0.0 | 1.6 | 0.00 | 0.00 | 0.00 | 1 | 927.8 |
| 20260506101510 | 11 | 135 | 0.0 | 1.6 | 0.00 | 0.00 | 0.00 | 1 | 927.7 |
| 20260506101309 | 11 | 135 | 0.0 | 1.6 | 0.00 | 0.00 | 0.00 | 1 | 927.8 |
| 20260506101108 | 11 | 135 | 0.0 | 1.6 | 0.00 | 0.00 | 0.00 | 1 | 927.7 |
| 20260506100908 | 11 | 0 | 0.0 | 0.0 | 0.00 | 0.00 | 0.00 | 1 | 927.7 |
| 20260506100708 | 11 | 90 | 0.0 | 1.6 | 0.00 | 0.00 | 0.00 | 1 | 927.7 |
| 20260506100309 | 11 | 135 | 0.0 | 1.6 | 0.00 | 0.00 | 0.00 | 1 | 927.5 |
| 20260506100108 | 11 | 135 | 0.0 | 1.6 | 0.00 | 0.00 | 0.00 | 1 | 927.4 |
| 20260506095908 | 11 | 90 | 0.0 | 1.6 | 0.00 | 0.00 | 0.00 | 1 | 927.4 |
| 20260506095708 | 11 | 90 | 0.0 | 1.6 | 0.00 | 0.00 | 0.00 | 1 | 927.4 |
| 20260506095309 | 11 | 0 | 0.0 | 1.6 | 0.00 | 0.00 | 0.00 | 1 | 927.3 |
| 20260506095109 | 11 | 45 | 0.0 | 1.6 | 0.00 | 0.00 | 0.00 | 1 | 927.3 |
| 20260506094908 | 11 | 0 | 0.0 | 1.6 | 0.00 | 0.00 | 0.00 | 1 | 927.3 |
| 20260506094708 | 11 | 0 | 0.0 | 1.6 | 0.00 | 0.00 | 0.00 | 1 | 927.3 |
| 20260506094510 | 11 | 90 | 0.0 | 3.2 | 0.00 | 0.00 | 0.00 | 1 | 927.3 |
| 20260506094308 | 11 | 90 | 0.0 | 3.2 | 0.00 | 0.00 | 0.00 | 1 | 927.3 |
| 20260506094108 | 11 | 90 | 0.0 | 3.2 | 0.00 | 0.00 | 0.00 | 1 | 927.2 |
| 20260506093908 | 11 | 90 | 0.0 | 3.2 | 0.00 | 0.00 | 0.00 | 1 | 927.2 |
| 20260506093708 | 11 | 135 | 0.0 | 3.2 | 0.00 | 0.00 | 0.00 | 1 | 927.2 |
| 20260506093510 | 11 | 90 | 0.0 | 3.2 | 0.00 | 0.00 | 0.00 | 1 | 927.2 |
| 20260506093308 | 11 | 45 | 0.0 | 3.2 | 0.00 | 0.00 | 0.00 | 1 | 927.2 |
| 20260506093109 | 11 | 135 | 0.0 | 3.2 | 0.00 | 0.00 | 0.00 | 1 | 927.1 |
| 20260506092909 | 11 | 45 | 0.0 | 3.2 | 0.00 | 0.00 | 0.00 | 1 | 927.2 |
| 20260506092708 | 11 | 90 | 0.0 | 3.2 | 0.00 | 0.00 | 0.00 | 1 | 927.2 |
| 20260506092510 | 10 | 90 | 0.0 | 3.2 | 0.00 | 0.00 | 0.00 | 1 | 927.2 |
| 20260506092308 | 11 | 135 | 0.0 | 3.2 | 0.00 | 0.00 | 0.00 | 1 | 927.2 |
| 20260506092108 | 11 | 135 | 0.0 | 3.2 | 0.00 | 0.00 | 0.00 | 1 | 927.2 |
| 20260506091908 | 11 | 90 | 0.0 | 3.2 | 0.00 | 0.00 | 0.00 | 1 | 927.1 |
| 20260506091708 | 11 | 90 | 0.0 | 1.6 | 0.00 | 0.00 | 0.00 | 1 | 927.2 |
| 20260506091510 | 11 | 90 | 0.0 | 3.2 | 0.00 | 0.00 | 0.00 | 1 | 927.2 |
| 20260506091308 | 11 | 90 | 0.0 | 3.2 | 0.00 | 0.00 | 0.00 | 1 | 927.2 |
| 20260506091108 | 11 | 90 | 0.0 | 3.2 | 0.00 | 0.00 | 0.00 | 1 | 927.2 |
| 20260506090909 | 11 | 90 | 0.0 | 3.2 | 0.00 | 0.00 | 0.00 | 1 | 927.3 |
| 20260506090709 | 10 | 90 | 0.0 | 3.2 | 0.00 | 0.00 | 0.00 | 1 | 927.1 |
| 20260506090510 | 11 | 45 | 0.0 | 3.2 | 0.00 | 0.00 | 0.00 | 1 | 927.3 |
| 20260506090308 | 10 | 0 | 0.0 | 3.2 | 0.00 | 0.00 | 0.00 | 1 | 927.2 |
| 20260506090108 | 10 | 90 | 0.0 | 3.2 | 0.00 | 0.00 | 0.00 | 1 | 927.2 |
| 20260506085908 | 11 | 90 | 0.0 | 3.2 | 0.00 | 0.00 | 0.00 | 1 | 927.2 |
| 20260506085708 | 11 | 90 | 0.0 | 3.2 | 0.00 | 0.00 | 0.00 | 1 | 927.1 |
| 20260506085510 | 11 | 90 | 0.0 | 1.6 | 0.00 | 0.00 | 0.00 | 1 | 927.1 |
| 20260506085308 | 11 | 90 | 0.0 | 1.6 | 0.00 | 0.00 | 0.00 | 1 | 927.1 |
| 20260506085108 | 11 | 90 | 0.0 | 1.6 | 0.00 | 0.00 | 0.00 | 1 | 927.0 |
| 20260506084908 | 11 | 45 | 0.0 | 0.0 | 0.00 | 0.00 | 0.00 | 1 | 927.0 |
| 20260506084709 | 11 | 45 | 0.0 | 1.6 | 0.00 | 0.00 | 0.00 | 1 | 927.0 |
| 20260506084510 | 11 | 90 | 0.0 | 1.6 | 0.00 | 0.00 | 0.00 | 1 | 927.1 |
| 20260506084308 | 11 | 90 | 0.0 | 1.6 | 0.00 | 0.00 | 0.00 | 1 | 927.0 |
| 20260506084108 | 11 | 90 | 0.0 | 1.6 | 0.00 | 0.00 | 0.00 | 1 | 927.1 |
| 20260506083908 | 11 | 90 | 0.0 | 1.6 | 0.00 | 0.00 | 0.00 | 1 | 927.0 |
| 20260506083708 | 11 | 135 | 0.0 | 1.6 | 0.00 | 0.00 | 0.00 | 1 | 927.0 |
| 20260506083510 | 11 | 90 | 0.0 | 1.6 | 0.00 | 0.00 | 0.00 | 1 | 927.0 |
| 20260506083308 | 11 | 90 | 0.0 | 1.6 | 0.00 | 0.00 | 0.00 | 1 | 926.9 |
| 20260506083108 | 11 | 90 | 0.0 | 1.6 | 0.00 | 0.00 | 0.00 | 1 | 926.9 |
| 20260506082908 | 11 | 45 | 0.0 | 1.6 | 0.00 | 0.00 | 0.00 | 1 | 926.9 |
| 20260506082709 | 11 | 135 | 0.0 | 1.6 | 0.00 | 0.00 | 0.00 | 1 | 926.8 |
| 20260506082510 | 11 | 90 | 0.0 | 1.6 | 0.00 | 0.00 | 0.00 | 1 | 926.8 |
| 20260506082308 | 11 | 45 | 0.0 | 1.6 | 0.00 | 0.00 | 0.00 | 1 | 926.7 |
| 20260506082108 | 11 | 90 | 0.0 | 1.6 | 0.00 | 0.00 | 0.00 | 1 | 926.7 |
| 20260506081908 | 11 | 90 | 0.0 | 1.6 | 0.00 | 0.00 | 0.00 | 1 | 926.7 |
| 20260506081708 | 11 | 90 | 0.0 | 1.6 | 0.00 | 0.00 | 0.00 | 1 | 926.6 |
| 20260506081510 | 11 | 90 | 0.0 | 1.6 | 0.00 | 0.00 | 0.00 | 1 | 926.6 |
| 20260506081308 | 11 | 135 | 0.0 | 1.6 | 0.00 | 0.00 | 0.00 | 1 | 926.5 |
| 20260506081108 | 11 | 90 | 0.0 | 1.6 | 0.00 | 0.00 | 0.00 | 1 | 926.5 |
| 20260506080908 | 11 | 90 | 0.0 | 1.6 | 0.00 | 0.00 | 0.00 | 1 | 926.5 |
| 20260506080708 | 11 | 90 | 0.0 | 1.6 | 0.00 | 0.00 | 0.00 | 1 | 926.6 |
| 20260506080510 | 11 | 90 | 0.0 | 0.0 | 0.00 | 0.00 | 0.00 | 1 | 926.5 |
| 20260506080309 | 11 | 90 | 0.0 | 0.0 | 0.00 | 0.00 | 0.00 | 1 | 926.5 |
| 20260506080108 | 11 | 90 | 0.0 | 1.6 | 0.00 | 0.00 | 0.00 | 1 | 926.5 |
| 20260506073510 | 12 | 225 | 0.0 | 0.0 | 0.00 | 0.00 | 0.00 | 1 | 926.5 |
| 20260506073308 | 12 | 135 | 0.0 | 0.0 | 0.00 | 0.00 | 0.00 | 1 | 926.5 |
| 20260506073108 | 12 | 135 | 0.0 | 0.0 | 0.00 | 0.00 | 0.00 | 1 | 926.4 |
| 20260506072908 | 12 | 135 | 0.0 | 0.0 | 0.00 | 0.00 | 0.00 | 1 | 926.3 |
| 20260506072708 | 12 | 135 | 0.0 | 1.6 | 0.00 | 0.00 | 0.00 | 1 | 926.3 |
| 20260506072510 | 12 | 0 | 0.0 | 1.6 | 0.00 | 0.00 | 0.00 | 1 | 926.3 |
| 20260506072308 | 12 | 90 | 0.0 | 1.6 | 0.00 | 0.00 | 0.00 | 1 | 926.2 |
| 20260506072109 | 12 | 90 | 0.0 | 1.6 | 0.00 | 0.00 | 0.00 | 1 | 926.3 |
| 20260506071908 | 12 | 90 | 0.0 | 1.6 | 0.00 | 0.00 | 0.00 | 1 | 926.2 |
| 20260506071708 | 12 | 45 | 0.0 | 0.0 | 0.00 | 0.00 | 0.00 | 1 | 926.2 |
| 20260506071510 | 12 | 90 | 0.0 | 0.0 | 0.00 | 0.00 | 0.00 | 1 | 926.2 |
| 20260506071308 | 12 | 90 | 0.0 | 0.0 | 0.00 | 0.00 | 0.00 | 1 | 926.3 |
| 20260506071108 | 12 | 90 | 0.0 | 0.0 | 0.00 | 0.00 | 0.00 | 1 | 926.4 |
| 20260506070908 | 12 | 135 | 0.0 | 1.6 | 0.00 | 0.00 | 0.00 | 1 | 926.5 |
| 20260506070708 | 13 | 180 | 0.0 | 1.6 | 0.00 | 0.00 | 0.00 | 1 | 926.5 |
| 20260506070510 | 13 | 90 | 0.0 | 1.6 | 0.00 | 0.00 | 0.00 | 1 | 926.5 |
| 20260506070308 | 13 | 90 | 0.0 | 1.6 | 0.00 | 0.00 | 0.00 | 1 | 926.5 |
| 20260506070108 | 13 | 90 | 0.0 | 1.6 | 0.00 | 0.00 | 0.00 | 1 | 926.4 |
| 20260506062510 | 13 | 180 | 0.0 | 1.6 | 0.00 | 0.00 | 0.00 | 1 | 926.8 |
| 20260506062308 | 13 | 180 | 0.0 | 1.6 | 0.00 | 0.00 | 0.00 | 1 | 926.9 |
| 20260506062108 | 13 | 45 | 0.0 | 1.6 | 0.00 | 0.00 | 0.00 | 1 | 926.8 |
| 20260506061908 | 13 | 0 | 0.0 | 3.2 | 0.00 | 0.00 | 0.00 | 1 | 926.9 |
| 20260506061708 | 13 | 45 | 0.0 | 3.2 | 0.00 | 0.00 | 0.00 | 1 | 926.9 |
| 20260506061510 | 13 | 90 | 0.0 | 3.2 | 0.00 | 0.00 | 0.00 | 1 | 926.8 |
| 20260506061308 | 13 | 45 | 0.0 | 3.2 | 0.00 | 0.00 | 0.00 | 1 | 927.0 |
| 20260506061108 | 13 | 0 | 0.0 | 3.2 | 0.00 | 0.00 | 0.00 | 1 | 926.8 |
| 20260506060908 | 13 | 135 | 0.0 | 3.2 | 0.00 | 0.00 | 0.00 | 1 | 926.9 |
| 20260506060708 | 13 | 90 | 0.0 | 1.6 | 0.00 | 0.00 | 0.00 | 1 | 927.0 |
| 20260506060510 | 13 | 90 | 0.0 | 1.6 | 0.00 | 0.00 | 0.00 | 1 | 927.0 |
| 20260506060308 | 13 | 45 | 0.0 | 1.6 | 0.00 | 0.00 | 0.00 | 1 | 927.0 |
| 20260506060108 | 13 | 45 | 0.0 | 1.6 | 0.00 | 0.00 | 0.00 | 1 | 927.1 |
| 20260506051308 | 13 | 90 | 0.0 | 1.6 | 0.00 | 0.00 | 0.00 | 1 | 927.3 |
| 20260506051108 | 13 | 90 | 0.0 | 1.6 | 0.00 | 0.00 | 0.00 | 1 | 927.3 |
| 20260506050909 | 13 | 135 | 0.0 | 1.6 | 0.00 | 0.00 | 0.00 | 1 | 927.3 |
| 20260506050709 | 13 | 45 | 0.0 | 0.0 | 0.00 | 0.00 | 0.00 | 1 | 927.3 |
| 20260506050510 | 13 | 135 | 0.0 | 0.0 | 0.00 | 0.00 | 0.00 | 1 | 927.3 |
| 20260506050308 | 13 | 135 | 0.0 | 0.0 | 0.00 | 0.00 | 0.00 | 1 | 927.4 |
| 20260506050108 | 13 | 135 | 0.0 | 0.0 | 0.00 | 0.00 | 0.00 | 1 | 927.4 |
| 20260506045108 | 14 | 45 | 0.0 | 1.6 | 0.00 | 0.00 | 0.00 | 1 | 927.4 |
| 20260506044908 | 14 | 45 | 0.0 | 1.6 | 0.00 | 0.00 | 0.00 | 1 | 927.4 |
| 20260506044709 | 14 | 45 | 0.0 | 1.6 | 0.00 | 0.00 | 0.00 | 1 | 927.4 |
| 20260506044510 | 14 | 45 | 0.0 | 1.6 | 0.00 | 0.00 | 0.00 | 1 | 927.4 |
| 20260506044309 | 14 | 90 | 0.0 | 1.6 | 0.00 | 0.00 | 0.00 | 1 | 927.4 |
| 20260506044108 | 14 | 90 | 0.0 | 1.6 | 0.00 | 0.00 | 0.00 | 1 | 927.3 |
| 20260506043908 | 14 | 45 | 0.0 | 1.6 | 0.00 | 0.00 | 0.00 | 1 | 927.4 |
| 20260506043708 | 14 | 45 | 0.0 | 0.0 | 0.00 | 0.00 | 0.00 | 1 | 927.5 |
| 20260506043510 | 14 | 45 | 0.0 | 0.0 | 0.00 | 0.00 | 0.00 | 1 | 927.5 |
| 20260506043308 | 14 | 0 | 0.0 | 0.0 | 0.00 | 0.00 | 0.00 | 1 | 927.5 |
| 20260506043108 | 14 | 45 | 0.0 | 0.0 | 0.00 | 0.00 | 0.00 | 1 | 927.6 |
| 20260506042908 | 14 | 0 | 0.0 | 0.0 | 0.00 | 0.00 | 0.00 | 1 | 927.6 |
| 20260506042708 | 15 | 180 | 0.0 | 0.0 | 0.00 | 0.00 | 0.00 | 1 | 927.5 |
| 20260506042510 | 15 | 45 | 0.0 | 0.0 | 0.00 | 0.00 | 0.00 | 1 | 927.5 |
| 20260506042309 | 15 | 45 | 0.0 | 0.0 | 0.00 | 0.00 | 0.00 | 1 | 927.5 |
| 20260506042109 | 15 | 45 | 0.0 | 0.0 | 0.00 | 0.00 | 0.00 | 1 | 927.5 |
| 20260506041909 | 15 | 0 | 0.0 | 0.0 | 0.00 | 0.00 | 0.00 | 1 | 927.6 |
| 20260506041708 | 15 | 225 | 0.0 | 0.0 | 0.00 | 0.00 | 0.00 | 1 | 927.5 |
| 20260506041510 | 15 | 225 | 0.0 | 0.0 | 0.00 | 0.00 | 0.00 | 1 | 927.6 |
| 20260506041308 | 14 | 225 | 0.0 | 0.0 | 0.00 | 0.00 | 0.00 | 1 | 927.5 |
| 20260506041108 | 14 | 180 | 0.0 | 0.0 | 0.00 | 0.00 | 0.00 | 1 | 927.5 |
| 20260506040908 | 15 | 135 | 0.0 | 0.0 | 0.00 | 0.00 | 0.00 | 1 | 927.5 |
| 20260506040708 | 15 | 135 | 0.0 | 0.0 | 0.00 | 0.00 | 0.00 | 1 | 927.4 |
| 20260506040510 | 15 | 135 | 0.0 | 0.0 | 0.00 | 0.00 | 0.00 | 1 | 927.3 |
| 20260506040109 | 15 | 135 | 0.0 | 0.0 | 0.00 | 0.00 | 0.00 | 1 | 927.3 |
| 20260506035909 | 15 | 135 | 0.0 | 0.0 | 0.00 | 0.00 | 0.00 | 1 | 927.3 |
| 20260506035708 | 15 | 135 | 0.0 | 0.0 | 0.00 | 0.00 | 0.00 | 1 | 927.3 |
| 20260506035510 | 15 | 45 | 0.0 | 0.0 | 0.00 | 0.00 | 0.00 | 1 | 927.3 |
| 20260506035308 | 15 | 45 | 0.0 | 0.0 | 0.00 | 0.00 | 0.00 | 99 | 927.4 |
| 20260506035108 | 15 | 45 | 0.0 | 0.0 | 0.00 | 0.00 | 0.00 | 99 | 927.3 |
| 20260506034908 | 15 | 0 | 0.0 | 0.0 | 0.00 | 0.00 | 0.00 | 1 | 927.3 |
| 20260506034708 | 15 | 45 | 0.0 | 0.0 | 0.00 | 0.00 | 0.00 | 99 | 927.3 |
| 20260506034510 | 15 | 90 | 0.0 | 1.6 | 0.00 | 0.00 | 0.00 | 99 | 927.2 |
| 20260506034308 | 15 | 90 | 0.0 | 1.6 | 0.00 | 0.00 | 0.00 | 99 | 927.3 |
| 20260506034108 | 15 | 90 | 0.0 | 1.6 | 0.00 | 0.00 | 0.00 | 1 | 927.3 |
| 20260506033908 | 15 | 90 | 0.0 | 1.6 | 0.00 | 0.00 | 0.00 | 1 | 927.3 |
| 20260506033709 | 15 | 90 | 0.0 | 1.6 | 0.00 | 0.00 | 0.00 | 1 | 927.3 |
| 20260506033510 | 15 | 90 | 0.0 | 1.6 | 0.00 | 0.00 | 0.00 | 1 | 927.3 |
| 20260506033308 | 15 | 45 | 0.0 | 1.6 | 0.00 | 0.00 | 0.00 | 1 | 927.2 |
| 20260506033108 | 15 | 90 | 0.0 | 1.6 | 0.00 | 0.00 | 0.00 | 99 | 927.3 |
| 20260506032908 | 15 | 90 | 0.0 | 1.6 | 0.00 | 0.00 | 0.00 | 99 | 927.3 |
| 20260506032510 | 15 | 45 | 0.0 | 0.0 | 0.00 | 0.00 | 0.00 | 99 | 927.3 |
| 20260506032308 | 15 | 90 | 0.0 | 0.0 | 0.00 | 0.00 | 0.00 | 99 | 927.2 |
| 20260506032108 | 15 | 90 | 0.0 | 0.0 | 0.00 | 0.00 | 0.00 | 99 | 927.2 |
| 20260506031908 | 15 | 225 | 0.0 | 0.0 | 0.00 | 0.00 | 0.00 | 99 | 927.3 |
| 20260506031708 | 15 | 225 | 0.0 | 0.0 | 0.00 | 0.00 | 0.00 | 99 | 927.3 |
| 20260506031510 | 15 | 225 | 0.0 | 0.0 | 0.00 | 0.00 | 0.00 | 99 | 927.3 |
| 20260506031309 | 15 | 90 | 0.0 | 0.0 | 0.00 | 0.00 | 0.00 | 99 | 927.2 |
| 20260506031108 | 15 | 90 | 0.0 | 0.0 | 0.00 | 0.00 | 0.00 | 99 | 927.2 |
| 20260506030908 | 15 | 90 | 0.0 | 0.0 | 0.00 | 0.00 | 0.00 | 99 | 927.2 |
| 20260506030708 | 15 | 90 | 0.0 | 0.0 | 0.00 | 0.00 | 0.00 | 99 | 927.2 |
| 20260506030510 | 15 | 90 | 0.0 | 0.0 | 0.00 | 0.00 | 0.00 | 1 | 927.2 |
| 20260506030308 | 15 | 135 | 0.0 | 0.0 | 0.00 | 0.00 | 0.00 | 99 | 927.3 |
| 20260506030108 | 15 | 135 | 0.0 | 1.6 | 0.00 | 0.00 | 0.00 | 1 | 927.3 |
| 20260506025908 | 15 | 135 | 0.0 | 3.2 | 0.00 | 0.00 | 0.00 | 99 | 927.3 |
| 20260506025709 | 16 | 45 | 0.0 | 4.8 | 0.00 | 0.00 | 0.00 | 99 | 927.2 |
| 20260506025510 | 15 | 45 | 0.0 | 4.8 | 0.00 | 0.00 | 0.00 | 99 | 927.2 |
| 20260506025308 | 15 | 225 | 0.0 | 4.8 | 0.00 | 0.00 | 0.00 | 1 | 927.2 |
| 20260506025109 | 15 | 225 | 0.0 | 4.8 | 0.00 | 0.00 | 0.00 | 1 | 927.3 |
| 20260506024909 | 15 | 225 | 1.6 | 4.8 | 0.00 | 0.00 | 0.00 | 1 | 927.3 |
| 20260506024708 | 15 | 0 | 0.0 | 4.8 | 0.00 | 0.00 | 0.00 | 99 | 927.3 |
| 20260506024510 | 15 | 225 | 0.0 | 4.8 | 0.00 | 0.00 | 0.00 | 99 | 927.3 |
| 20260506024308 | 15 | 315 | 1.6 | 4.8 | 0.00 | 0.00 | 0.00 | 1 | 927.3 |
| 20260506024109 | 15 | 225 | 1.6 | 4.8 | 0.00 | 0.00 | 0.00 | 1 | 927.3 |
| 20260506023908 | 15 | 225 | 1.6 | 6.4 | 0.00 | 0.00 | 0.00 | 99 | 927.2 |
| 20260506023708 | 15 | 0 | 1.6 | 6.4 | 0.00 | 0.00 | 0.00 | 99 | 927.2 |
| 20260506023510 | 15 | 0 | 1.6 | 6.4 | 0.00 | 0.00 | 0.00 | 99 | 927.3 |
| 20260506023308 | 15 | 0 | 1.6 | 6.4 | 0.00 | 0.00 | 0.00 | 99 | 927.3 |
| 20260506023108 | 15 | 0 | 1.6 | 6.4 | 0.00 | 0.00 | 0.00 | 99 | 927.3 |
| 20260506022908 | 15 | 225 | 1.6 | 6.4 | 0.00 | 0.00 | 0.00 | 99 | 927.3 |
| 20260506022709 | 16 | 315 | 3.2 | 6.4 | 0.00 | 0.00 | 0.00 | 99 | 927.4 |
| 20260506022510 | 16 | 0 | 0.0 | 3.2 | 0.00 | 0.00 | 0.00 | 99 | 927.4 |
| 20260506022308 | 16 | 225 | 0.0 | 3.2 | 0.00 | 0.00 | 0.00 | 99 | 927.4 |
| 20260506022108 | 16 | 0 | 0.0 | 3.2 | 0.00 | 0.00 | 0.00 | 99 | 927.4 |
| 20260506021908 | 16 | 45 | 0.0 | 3.2 | 0.00 | 0.00 | 0.00 | 99 | 927.4 |
| 20260506021708 | 16 | 45 | 0.0 | 4.8 | 0.00 | 0.00 | 0.00 | 99 | 927.4 |
| 20260506021510 | 16 | 45 | 0.0 | 4.8 | 0.00 | 0.00 | 0.00 | 99 | 927.4 |
| 20260506021309 | 16 | 90 | 0.0 | 4.8 | 0.00 | 0.00 | 0.00 | 99 | 927.4 |
| 20260506021108 | 16 | 45 | 0.0 | 4.8 | 0.00 | 0.00 | 0.00 | 99 | 927.5 |
| 20260506020309 | 16 | 180 | 0.0 | 3.2 | 0.00 | 0.00 | 0.00 | 99 | 927.6 |
| 20260506020109 | 16 | 225 | 0.0 | 1.6 | 0.00 | 0.00 | 0.00 | 99 | 927.6 |
| 20260506015908 | 16 | 225 | 0.0 | 1.6 | 0.00 | 0.00 | 0.00 | 99 | 927.6 |
| 20260506015708 | 16 | 225 | 0.0 | 1.6 | 0.00 | 0.00 | 0.00 | 99 | 927.6 |
| 20260506015510 | 16 | 225 | 0.0 | 1.6 | 0.00 | 0.00 | 0.00 | 99 | 927.5 |
| 20260506015308 | 16 | 225 | 0.0 | 1.6 | 0.00 | 0.00 | 0.00 | 99 | 927.6 |
| 20260506015108 | 16 | 0 | 0.0 | 1.6 | 0.00 | 0.00 | 0.00 | 99 | 927.6 |
| 20260506014908 | 16 | 225 | 0.0 | 1.6 | 0.00 | 0.00 | 0.00 | 99 | 927.6 |
| 20260506014708 | 17 | 225 | 0.0 | 1.6 | 0.00 | 0.00 | 0.00 | 99 | 927.6 |
| 20260506014510 | 17 | 225 | 0.0 | 1.6 | 0.00 | 0.00 | 0.00 | 99 | 927.5 |
| 20260506014308 | 17 | 225 | 0.0 | 1.6 | 0.00 | 0.00 | 0.00 | 99 | 927.5 |
| 20260506014109 | 17 | 45 | 0.0 | 1.6 | 0.00 | 0.00 | 0.00 | 99 | 927.5 |
| 20260506013909 | 17 | 225 | 0.0 | 1.6 | 0.00 | 0.00 | 0.00 | 99 | 927.4 |
| 20260506013709 | 16 | 180 | 0.0 | 1.6 | 0.00 | 0.00 | 0.00 | 99 | 927.4 |
| 20260506013510 | 16 | 225 | 0.0 | 1.6 | 0.00 | 0.00 | 0.00 | 99 | 927.4 |
| 20260506013308 | 16 | 180 | 0.0 | 3.2 | 0.00 | 0.00 | 0.00 | 99 | 927.4 |
| 20260506013109 | 16 | 45 | 0.0 | 3.2 | 0.00 | 0.00 | 0.00 | 99 | 927.5 |
| 20260506012908 | 17 | 315 | 0.0 | 4.8 | 0.00 | 0.00 | 0.00 | 99 | 927.4 |
| 20260506012708 | 16 | 0 | 0.0 | 4.8 | 0.00 | 0.00 | 0.00 | 99 | 927.4 |
| 20260506012510 | 16 | 315 | 0.0 | 4.8 | 0.00 | 0.00 | 0.00 | 99 | 927.4 |
| 20260506012308 | 16 | 0 | 0.0 | 4.8 | 0.00 | 0.00 | 0.00 | 99 | 927.4 |
| 20260506012108 | 16 | 0 | 1.6 | 4.8 | 0.00 | 0.00 | 0.00 | 99 | 927.4 |
| 20260506011908 | 16 | 0 | 1.6 | 4.8 | 0.00 | 0.00 | 0.00 | 99 | 927.4 |
| 20260506011709 | 17 | 225 | 1.6 | 4.8 | 0.00 | 0.00 | 0.00 | 99 | 927.4 |
| 20260506011510 | 17 | 0 | 1.6 | 4.8 | 0.00 | 0.00 | 0.00 | 99 | 927.4 |
| 20260506011308 | 17 | 225 | 1.6 | 4.8 | 0.00 | 0.00 | 0.00 | 99 | 927.4 |
| 20260506011108 | 17 | 0 | 0.0 | 3.2 | 0.00 | 0.00 | 0.00 | 99 | 927.3 |
| 20260506010908 | 17 | 0 | 0.0 | 3.2 | 0.00 | 0.00 | 0.00 | 99 | 927.3 |
| 20260506010709 | 17 | 0 | 0.0 | 3.2 | 0.00 | 0.00 | 0.00 | 99 | 927.3 |
| 20260506010510 | 17 | 0 | 0.0 | 3.2 | 0.00 | 0.00 | 0.00 | 99 | 927.3 |
| 20260506010308 | 17 | 180 | 0.0 | 1.6 | 0.00 | 0.00 | 0.00 | 99 | 927.4 |
| 20260506010108 | 17 | 45 | 0.0 | 0.0 | 0.00 | 0.00 | 0.00 | 99 | 927.3 |
| 20260506005908 | 17 | 45 | 0.0 | 0.0 | 0.00 | 0.00 | 0.00 | 99 | 927.4 |
| 20260506005708 | 17 | 90 | 0.0 | 0.0 | 0.00 | 0.00 | 0.00 | 99 | 927.5 |
| 20260506005510 | 17 | 45 | 0.0 | 0.0 | 0.00 | 0.00 | 0.00 | 99 | 927.6 |
| 20260506005309 | 17 | 45 | 0.0 | 0.0 | 0.00 | 0.00 | 0.00 | 99 | 927.6 |
| 20260506005109 | 18 | 45 | 0.0 | 0.0 | 0.00 | 0.00 | 0.00 | 99 | 927.7 |
| 20260506004909 | 18 | 0 | 0.0 | 0.0 | 0.00 | 0.00 | 0.00 | 99 | 927.7 |
| 20260506004708 | 18 | 0 | 0.0 | 0.0 | 0.00 | 0.00 | 0.00 | 99 | 927.6 |
| 20260506004511 | 18 | 45 | 0.0 | 0.0 | 0.00 | 0.00 | 0.00 | 99 | 927.5 |
| 20260506004308 | 18 | 90 | 0.0 | 0.0 | 0.00 | 0.00 | 0.00 | 99 | 927.5 |
| 20260506004108 | 18 | 90 | 0.0 | 0.0 | 0.00 | 0.00 | 0.00 | 99 | 927.5 |
| 20260506003708 | 18 | 45 | 0.0 | 0.0 | 0.00 | 0.00 | 0.00 | 99 | 927.4 |
| 20260506003510 | 18 | 90 | 0.0 | 0.0 | 0.00 | 0.00 | 0.00 | 99 | 927.3 |
| 20260506003308 | 18 | 90 | 0.0 | 0.0 | 0.00 | 0.00 | 0.00 | 99 | 927.3 |
| 20260506003109 | 18 | 90 | 0.0 | 0.0 | 0.00 | 0.00 | 0.00 | 99 | 927.2 |
| 20260506002909 | 18 | 135 | 0.0 | 0.0 | 0.00 | 0.00 | 0.00 | 99 | 927.1 |
| 20260506002709 | 18 | 180 | 0.0 | 0.0 | 0.00 | 0.00 | 0.00 | 99 | 927.1 |
| 20260506002510 | 18 | 45 | 0.0 | 1.6 | 0.00 | 0.00 | 0.00 | 99 | 927.1 |
| 20260506002308 | 18 | 45 | 0.0 | 1.6 | 0.00 | 0.00 | 0.00 | 99 | 927.1 |
| 20260506001908 | 18 | 180 | 0.0 | 3.2 | 0.00 | 0.00 | 0.00 | 99 | 926.8 |
| 20260506001709 | 17 | 180 | 0.0 | 3.2 | 0.00 | 0.00 | 0.00 | 99 | 926.7 |
| 20260506001510 | 17 | 180 | 0.0 | 3.2 | 0.00 | 0.00 | 0.00 | 99 | 926.8 |
| 20260506001308 | 17 | 135 | 0.0 | 3.2 | 0.00 | 0.00 | 0.00 | 99 | 926.7 |
| 20260506001108 | 17 | 135 | 1.6 | 3.2 | 0.00 | 0.00 | 0.00 | 99 | 926.7 |
| 20260506000908 | 17 | 135 | 0.0 | 3.2 | 0.00 | 0.00 | 0.00 | 99 | 926.8 |
| 20260506000709 | 18 | 135 | 0.0 | 3.2 | 0.00 | 0.00 | 0.00 | 99 | 926.8 |
| 20260506000510 | 18 | 180 | 0.0 | 1.6 | 0.00 | 0.00 | 0.00 | 99 | 926.9 |
| 20260506000309 | 18 | 45 | 0.0 | 1.6 | 0.00 | 0.00 | 0.00 | 99 | 926.9 |
| 20260506000108 | 18 | 225 | 0.0 | 1.6 | 0.00 | 0.00 | 0.00 | 99 | 926.9 |
| 20260505235908 | 18 | 0 | 0.0 | 1.6 | 0.00 | 0.00 | 0.00 | 99 | 926.9 |
| 20260505235708 | 18 | 225 | 0.0 | 0.0 | 0.00 | 0.00 | 0.00 | 99 | 926.8 |
| 20260505235510 | 18 | 225 | 0.0 | 0.0 | 0.00 | 0.00 | 0.00 | 99 | 926.8 |
| 20260505235309 | 18 | 0 | 0.0 | 0.0 | 0.00 | 0.00 | 0.00 | 99 | 926.8 |
| 20260505235109 | 19 | 45 | 0.0 | 0.0 | 0.00 | 0.00 | 0.00 | 99 | 926.8 |
| 20260505234908 | 19 | 45 | 0.0 | 0.0 | 0.00 | 0.00 | 0.00 | 99 | 926.7 |
| 20260505234708 | 18 | 45 | 0.0 | 0.0 | 0.00 | 0.00 | 0.00 | 99 | 926.7 |
| 20260505234510 | 18 | 45 | 0.0 | 0.0 | 0.00 | 0.00 | 0.00 | 99 | 926.7 |
| 20260505234309 | 18 | 180 | 0.0 | 1.6 | 0.00 | 0.00 | 0.00 | 99 | 926.7 |
| 20260505234109 | 18 | 180 | 0.0 | 1.6 | 0.00 | 0.00 | 0.00 | 99 | 926.7 |
| 20260505233909 | 19 | 225 | 0.0 | 1.6 | 0.00 | 0.00 | 0.00 | 99 | 926.8 |
| 20260505233709 | 19 | 225 | 0.0 | 1.6 | 0.00 | 0.00 | 0.00 | 99 | 926.7 |
| 20260505233510 | 18 | 225 | 0.0 | 1.6 | 0.00 | 0.00 | 0.00 | 99 | 926.7 |
| 20260505233308 | 19 | 225 | 0.0 | 1.6 | 0.00 | 0.00 | 0.00 | 99 | 926.7 |
| 20260505233108 | 18 | 45 | 0.0 | 1.6 | 0.00 | 0.00 | 0.00 | 99 | 926.7 |
| 20260505232909 | 18 | 225 | 0.0 | 1.6 | 0.00 | 0.00 | 0.00 | 99 | 926.8 |
| 20260505232708 | 18 | 225 | 0.0 | 1.6 | 0.00 | 0.00 | 0.00 | 99 | 926.8 |
| 20260505232510 | 18 | 0 | 0.0 | 1.6 | 0.00 | 0.00 | 0.00 | 99 | 926.8 |
| 20260505232308 | 18 | 90 | 0.0 | 1.6 | 0.00 | 0.00 | 0.00 | 99 | 926.7 |
| 20260505232109 | 18 | 45 | 0.0 | 3.2 | 0.00 | 0.00 | 0.00 | 99 | 926.6 |
| 20260505231908 | 18 | 135 | 0.0 | 4.8 | 0.00 | 0.00 | 0.00 | 99 | 926.4 |
| 20260505231709 | 18 | 45 | 0.0 | 4.8 | 0.00 | 0.00 | 0.00 | 99 | 926.4 |
| 20260505231510 | 18 | 90 | 0.0 | 4.8 | 0.00 | 0.00 | 0.00 | 99 | 926.4 |
| 20260505231308 | 18 | 135 | 0.0 | 4.8 | 0.00 | 0.00 | 0.00 | 99 | 926.4 |
| 20260505231109 | 17 | 225 | 1.6 | 4.8 | 0.00 | 0.00 | 0.00 | 99 | 926.4 |
| 20260505230909 | 17 | 135 | 1.6 | 4.8 | 0.00 | 0.00 | 0.00 | 99 | 926.4 |
| 20260505230708 | 17 | 135 | 1.6 | 4.8 | 0.00 | 0.00 | 0.00 | 99 | 926.5 |
| 20260505230510 | 18 | 135 | 1.6 | 4.8 | 0.00 | 0.00 | 0.00 | 99 | 926.5 |
| 20260505230308 | 18 | 225 | 1.6 | 4.8 | 0.00 | 0.00 | 0.00 | 99 | 926.4 |
| 20260505230109 | 18 | 0 | 0.0 | 4.8 | 0.00 | 0.00 | 0.00 | 99 | 926.4 |
| 20260505225908 | 18 | 135 | 0.0 | 4.8 | 0.00 | 0.00 | 0.00 | 99 | 926.4 |
| 20260505225709 | 18 | 225 | 1.6 | 4.8 | 0.00 | 0.00 | 0.00 | 99 | 926.4 |
| 20260505225510 | 18 | 135 | 0.0 | 4.8 | 0.00 | 0.00 | 0.00 | 99 | 926.3 |
| 20260505225309 | 18 | 135 | 1.6 | 4.8 | 0.00 | 0.00 | 0.00 | 99 | 926.2 |
| 20260505225109 | 18 | 135 | 1.6 | 4.8 | 0.00 | 0.00 | 0.00 | 99 | 926.2 |
| 20260505224908 | 18 | 90 | 1.6 | 6.4 | 0.00 | 0.00 | 0.00 | 99 | 926.2 |
| 20260505224709 | 18 | 45 | 3.2 | 6.4 | 0.00 | 0.00 | 0.00 | 99 | 926.2 |
| 20260505224511 | 18 | 225 | 1.6 | 6.4 | 0.00 | 0.00 | 0.00 | 99 | 926.1 |
| 20260505224309 | 18 | 135 | 1.6 | 6.4 | 0.00 | 0.00 | 0.00 | 99 | 926.1 |
| 20260505224108 | 18 | 225 | 1.6 | 6.4 | 0.00 | 0.00 | 0.00 | 99 | 926.1 |
| 20260505223909 | 18 | 180 | 1.6 | 4.8 | 0.00 | 0.00 | 0.00 | 99 | 926.1 |
| 20260505223709 | 18 | 315 | 1.6 | 4.8 | 0.00 | 0.00 | 0.00 | 99 | 926.1 |
| 20260505223510 | 18 | 225 | 1.6 | 4.8 | 0.00 | 0.00 | 0.00 | 99 | 926.1 |
| 20260505223309 | 18 | 225 | 0.0 | 4.8 | 0.00 | 0.00 | 0.00 | 99 | 926.1 |
| 20260505223108 | 18 | 225 | 1.6 | 4.8 | 0.00 | 0.00 | 0.00 | 99 | 926.2 |
| 20260505222909 | 19 | 180 | 0.0 | 3.2 | 0.00 | 0.00 | 0.00 | 99 | 926.2 |
| 20260505222709 | 19 | 135 | 0.0 | 3.2 | 0.00 | 0.00 | 0.00 | 99 | 926.2 |
| 20260505222510 | 19 | 180 | 0.0 | 4.8 | 0.00 | 0.00 | 0.00 | 99 | 926.2 |
| 20260505222308 | 19 | 180 | 0.0 | 4.8 | 0.00 | 0.00 | 0.00 | 99 | 926.3 |
| 20260505222109 | 19 | 135 | 0.0 | 4.8 | 0.00 | 0.00 | 0.00 | 99 | 926.3 |
| 20260505221908 | 19 | 135 | 0.0 | 6.4 | 0.00 | 0.00 | 0.00 | 99 | 926.2 |
| 20260505221709 | 18 | 180 | 0.0 | 8.0 | 0.00 | 0.00 | 0.00 | 99 | 926.2 |
| 20260505221510 | 18 | 180 | 1.6 | 8.0 | 0.00 | 0.00 | 0.00 | 99 | 926.1 |
| 20260505221309 | 18 | 180 | 3.2 | 8.0 | 0.00 | 0.00 | 0.00 | 99 | 926.1 |
| 20260505221109 | 18 | 180 | 3.2 | 8.0 | 0.00 | 0.00 | 0.00 | 99 | 926.1 |
| 20260505220909 | 18 | 180 | 3.2 | 8.0 | 0.00 | 0.00 | 0.00 | 99 | 926.1 |
| 20260505220708 | 18 | 225 | 1.6 | 4.8 | 0.00 | 0.00 | 0.00 | 99 | 926.1 |
| 20260505153204 | 25 | 90 | 0.0 | 1.6 | 0.00 | 0.00 | 0.00 | 99 | 926.5 |
| 20260505153004 | 24 | 90 | 0.0 | 1.6 | 0.00 | 0.00 | 0.00 | 99 | 926.7 |
| 20260505152804 | 25 | 90 | 0.0 | 1.6 | 0.00 | 0.00 | 0.00 | 99 | 926.7 |
| 20260505152605 | 25 | 180 | 0.0 | 1.6 | 0.00 | 0.00 | 0.00 | 99 | 926.7 |
| 20260505152404 | 24 | 225 | 0.0 | 1.6 | 0.00 | 0.00 | 0.00 | 99 | 926.7 |
| 20260505152204 | 24 | 180 | 0.0 | 1.6 | 0.00 | 0.00 | 0.00 | 99 | 926.7 |
| 20260505152004 | 23 | 180 | 0.0 | 1.6 | 0.00 | 0.00 | 0.00 | 99 | 926.8 |
| 20260505151804 | 23 | 45 | 0.0 | 1.6 | 0.00 | 0.00 | 0.00 | 99 | 926.7 |
| 20260505151605 | 23 | 90 | 0.0 | 1.6 | 0.00 | 0.00 | 0.00 | 99 | 926.7 |
| 20260505151404 | 23 | 135 | 0.0 | 1.6 | 0.00 | 0.00 | 0.00 | 99 | 926.7 |
| 20260505151204 | 23 | 315 | 0.0 | 1.6 | 0.00 | 0.00 | 0.00 | 99 | 926.8 |
| 20260505151004 | 23 | 135 | 0.0 | 1.6 | 0.00 | 0.00 | 0.00 | 99 | 926.9 |
| 20260505150805 | 23 | 135 | 0.0 | 1.6 | 0.00 | 0.00 | 0.00 | 99 | 926.9 |
| 20260505150605 | 23 | 135 | 0.0 | 1.6 | 0.00 | 0.00 | 0.00 | 99 | 926.9 |
| 20260505150404 | 23 | 135 | 0.0 | 1.6 | 0.00 | 0.00 | 0.00 | 99 | 927.0 |
| 20260505150204 | 23 | 225 | 0.0 | 1.6 | 0.00 | 0.00 | 0.00 | 99 | 927.0 |
| 20260505140605 | 20 | 0 | 0.0 | 3.2 | 0.00 | 0.00 | 0.00 | 99 | 927.5 |
| 20260505140404 | 20 | 0 | 0.0 | 3.2 | 0.00 | 0.00 | 0.00 | 99 | 927.5 |
| 20260505140204 | 20 | 0 | 0.0 | 3.2 | 0.00 | 0.00 | 0.00 | 99 | 927.5 |